Toronto Pearson, Ontario

7:50 PM EST on December 07, 2019 (GMT -0500)
Toronto-Pearson International

Weather History for CYYZ - May, 2019

Change the Weather History Date:

Monday, May 13, 2019

  Actual Average Record
Temperature  
Mean Temperature 43 °F -  
Max Temperature 46 °F 69 °F 80 °F (2004)
Min Temperature 40 °F 47 °F 34 °F (2013)
Degree Days  
Heating Degree Days 22    
Moisture  
Dew Point 42 °F    
Average Humidity 96    
Maximum Humidity 100    
Minimum Humidity 91    
Precipitation  
Precipitation 0.12 in 0.09 in - ()
Sea Level Pressure  
Sea Level Pressure 29.79 in    
Wind  
Wind Speed 17 mph ()    
Max Wind Speed 24 mph    
Max Gust Speed 31 mph    
Visibility 4.0 miles    
Events Rain    
Averages and records for this station are not official NWS values.
T = Trace of Precipitation, MM = Missing Value Source: Averaged Metar Reports

Daily Weather History Graph

Daily Weather History Graph

Search for Another Location

Airport or City:

Astronomy

May. 13, 2019 Rise Set
Actual Time 5:55 AM EDT 8:34 PM EDT
Civil Twilight 5:23 AM EDT 9:07 PM EDT
Nautical Twilight 4:41 AM EDT 9:48 PM EDT
Astronomical Twilight 3:54 AM EDT 10:36 PM EDT
Moon 2:30 PM EDT (5/13) 3:28 AM EDT (5/13)
Length of Visible Light 15h 44m
Length of Day
14h 38m
Waxing Gibbous, 68% of the Moon is Illuminated
May 13
Waxing Gibbous
May 18
Full
May 26
Last Quarter
Jun 3
New
Jun 10
First Quarter

Hourly Weather History & Observations

Time (EDT) Temp. Windchill Dew Point Humidity Pressure Visibility Wind Dir Wind Speed Gust Speed Precip Events Conditions
12:00 AM 41.0 °F 31.6 °F 39.2 °F 93% 29.88 in 4.0 mi East 20.7 mph 31.1 mph N/A Rain Light Rain
1:00 AM 41.0 °F 30.9 °F 39.2 °F 93% 29.85 in 6.0 mi East 24.2 mph 29.9 mph N/A Rain Light Rain
1:14 AM 41.0 °F 30.9 °F 39.2 °F 93% 29.84 in 6.0 mi East 24.2 mph 31.1 mph N/A Rain Light Rain
2:00 AM 40 °F - 39 °F 95% 29.83 in 6 mi East 20.7 mph - - Rain Light Rain
2:00 AM 41.0 °F 31.4 °F 39.2 °F 93% 29.83 in 6.0 mi East 21.9 mph 27.6 mph N/A Rain Light Rain
3:00 AM 41.0 °F 31.4 °F 39.2 °F 93% 29.82 in 6.0 mi East 21.9 mph - N/A Rain Light Rain
4:00 AM 41.0 °F 31.9 °F 39.2 °F 93% 29.80 in 5.0 mi East 19.6 mph 27.6 mph N/A Rain Light Rain
5:00 AM 40 °F - 39 °F 96% 29.78 in 6 mi East 20.7 mph - -   Overcast
5:00 AM 41.0 °F 31.4 °F 39.2 °F 93% 29.78 in 6.0 mi East 21.9 mph 28.8 mph N/A Rain Light Rain
6:00 AM 41.0 °F 31.9 °F 39.2 °F 93% 29.77 in 4.0 mi East 19.6 mph 26.5 mph N/A Rain Light Rain
6:35 AM 41.0 °F 31.9 °F 39.2 °F 93% 29.77 in 2.5 mi East 19.6 mph 26.5 mph N/A Rain Light Rain
7:00 AM 41.0 °F 32.2 °F 39.2 °F 93% 29.78 in 2.5 mi East 18.4 mph 28.8 mph N/A Rain Light Rain
8:00 AM 41 °F - 40 °F 95% 29.78 in 2 mi East 20.7 mph - - Rain Light Rain
8:00 AM 41.0 °F 31.6 °F 41.0 °F 100% 29.78 in 2.5 mi East 20.7 mph 28.8 mph N/A Rain Light Rain
8:16 AM 41.0 °F 32.2 °F 41.0 °F 100% 29.78 in 3.0 mi East 18.4 mph 25.3 mph N/A   Light Drizzle
9:00 AM 41.0 °F 30.9 °F 41.0 °F 100% 29.77 in 2.5 mi East 24.2 mph 29.9 mph N/A Rain Light Rain
9:35 AM 41.0 °F 31.9 °F 41.0 °F 100% 29.78 in 2.0 mi East 19.6 mph 27.6 mph N/A Rain Light Rain
10:00 AM 41.0 °F 32.5 °F 41.0 °F 100% 29.78 in 1.5 mi East 17.3 mph 27.6 mph N/A Rain Light Rain
11:00 AM 42 °F - 41 °F 96% 29.78 in 3 mi East 20.7 mph - -   Overcast
11:00 AM 42.8 °F 33.5 °F 41.0 °F 93% 29.77 in 3.0 mi East 23.0 mph - N/A Rain Light Rain
11:47 AM 42.8 °F 33.8 °F 41.0 °F 93% 29.77 in 4.0 mi East 21.9 mph 27.6 mph N/A   Light Drizzle
12:00 PM 42.8 °F 33.8 °F 41.0 °F 93% 29.77 in 4.0 mi East 21.9 mph - N/A   Light Drizzle
1:00 PM 42.8 °F 34.3 °F 42.8 °F 100% 29.76 in 4.0 mi ENE 19.6 mph - N/A   Light Drizzle
2:00 PM 44 °F - 42 °F 91% 29.76 in 3 mi ENE 16.1 mph - - Rain Light Drizzle
2:00 PM 44.6 °F 37.4 °F 42.8 °F 93% 29.76 in 3.0 mi ENE 16.1 mph - N/A   Light Drizzle
2:45 PM 44.6 °F 38.4 °F 42.8 °F 93% 29.77 in 2.0 mi East 12.7 mph - N/A Rain Light Rain
3:00 PM 44.6 °F 38.1 °F 42.8 °F 93% 29.77 in 2.0 mi ENE 13.8 mph 19.6 mph N/A Rain Light Rain
4:00 PM 44.6 °F 38.1 °F 42.8 °F 93% 29.77 in 4.0 mi ENE 13.8 mph - N/A   Light Drizzle
5:00 PM 45 °F - 43 °F 92% 29.76 in 6 mi ENE 13.8 mph - -   Overcast
5:00 PM 44.6 °F 37.8 °F 42.8 °F 93% 29.76 in 6.0 mi ENE 15.0 mph - N/A   Light Drizzle
5:43 PM 44.6 °F 38.1 °F 42.8 °F 93% 29.77 in 2.5 mi ENE 13.8 mph - N/A   Light Drizzle
6:00 PM 44.6 °F 38.1 °F 44.6 °F 100% 29.78 in 2.5 mi ENE 13.8 mph - N/A Rain Light Rain
6:26 PM 44.6 °F 38.4 °F 44.6 °F 100% 29.78 in 2.0 mi ENE 12.7 mph - N/A   Light Drizzle
6:41 PM 44.6 °F 38.4 °F 44.6 °F 100% 29.78 in 2.0 mi East 12.7 mph - N/A   Light Drizzle
7:02 PM 44.6 °F 38.4 °F 44.6 °F 100% 29.78 in 2.5 mi East 12.7 mph - N/A   Light Drizzle
7:30 PM 44.6 °F 39.2 °F 44.6 °F 100% 29.79 in 3.0 mi East 10.4 mph - N/A   Light Drizzle
7:53 PM 44.6 °F 39.2 °F 44.6 °F 100% 29.80 in 2.2 mi East 10.4 mph - N/A   Light Drizzle
8:00 PM 45 °F - 44 °F 94% 29.80 in 3 mi East 9.2 mph - - Rain Light Drizzle
8:00 PM 44.6 °F 39.7 °F 44.6 °F 100% 29.80 in 3.0 mi East 9.2 mph - N/A   Light Drizzle
9:26 PM 46.4 °F 41.1 °F 44.6 °F 93% 29.81 in 5.0 mi ENE 11.5 mph - N/A   Light Drizzle
11:00 PM 45 °F - 44 °F 94% 29.83 in 9 mi ENE 9.2 mph - -   Overcast
11:00 PM 44.6 °F 39.7 °F 44.6 °F 100% 29.82 in 9.0 mi ENE 9.2 mph - N/A   Light Drizzle
11:06 PM 46.4 °F 41.9 °F 44.6 °F 93% 29.82 in 9.0 mi ENE 9.2 mph - N/A Rain Light Rain
11:52 PM 44.6 °F 39.2 °F 44.6 °F 100% 29.83 in 4.0 mi ENE 10.4 mph - N/A Rain Light Rain